PORCUPINE 1

Satellite information

Favourite Embed

Satellite Type and Status

PAYLOADIN ORBIT

Key statistics

Satellite PORCUPINE 1 at a glance.

Uptime

22140

Days in orbit

Revolutions

≈ 13.9

Per day

Orbit

LEO

Low Earth Orbit

Inclination

70.1

Latest

Satellite identification and parameters

Extended collection of information and parameters for PORCUPINE 1.

Object identification

Identified? True

Debris? False

Object name: PORCUPINE 1

International designator: 1965-016H

Object number (NORAD): 1272

Object ID (CCSDS): 1272

Country: UNITED STATES OF AMERICA (US)

Current information (Y/N): Y

RCS size: MEDIUM

Orbital parameters

Period: 103.263 minutes

Inclination: 70.0814 deg

SMA: 7291.038 km

Apoapsis: 927.105 km

Periapsis: 898.701 km

RAAN: 40.5019 deg

Eccentricy: 0.00194783

Argument of periapsis: 75.9268 deg

Mean anomaly: 284.4 deg

Mean motion: 13.94500676 rev/day

Mean motion (dot): 0.00000046 rev/day2

B* drag term: 0.000073398269 1/REarth

Two-line elements (TLE)

Creation date: Oct. 20, 2025, 2:10 a.m.

Reference frame: TEME

Reference center: EARTH

Epoch: Oct. 19, 2025, 5:03 p.m. UTC

TLE line 0: 0 PORCUPINE 1

TLE line 1: 1 01272U 65016H 25292.71051555 .00000046 00000-0 73398-4 0 9993

TLE line 2: 2 01272 70.0814 40.5019 0019478 75.9268 284.4000 13.94500676 82851

Live tracking on map

Real-time ground track for satellite PORCUPINE 1.

In-orbit conjunctions

A list of the most updated potential collisions computed for object PORCUPINE 1.

Target Orbit TCA Probability of collision Miss distance Type
COSMOS 970 DEB LEO 2025-08-24 07:35:31 0.001133124 62.0 (m) DEBRIS
PEGASUS DEB LEO 2025-07-18 12:21:36 0.0004000321 709.0 (m) DEBRIS
COSMOS 2251 DEB LEO 2025-04-28 07:35:40 0.0001821309 177.0 (m) DEBRIS
THOR ABLESTAR DEB LEO 2025-04-12 20:20:25 0.0002593736 179.0 (m) DEBRIS
COSMOS 397 DEB * LEO 2025-03-30 05:16:39 0.000144564 165.0 (m) DEBRIS

Associated space launch

Poppy was the follow-on ELINT system, which succeeded the Grab ELINT satellite system.

PORCUPINE 1 was lifted into orbit during the mission ‘Thor SLV-2 Agena D | Poppy 6A,B,C,D’, on board a Thor SLV-2 Agena D space rocket.

The launch took place on March 9, 1965, 6:29 p.m. from Space Launch Complex 2W.

For more information about the launch, click the button.

Launch to space Thor SLV-2 Agena D | Poppy 6A,B,C,D
Thor SLV-2 Agena D | Poppy 6A,B,C,D

Agency: N/A

Status: Launch Successful

Launch date: March 9, 1965, 6:29 p.m. UTC

Rocket: Thor SLV-2 Agena D

Launch pad: Space Launch Complex 2W

Location: Vandenberg SFB, CA, USA

...

Latest news about this satellite

There are no fresh news available about this satellite. Check back as we update our databases every day.


Newsletter sign-up

Weekly statistics, charts and insights to help you stay on top of the space industry.